GFSNE_sfc_thetae_159.txt.gz
Theta_e
309 309 307 306 306 306 305 305 302 300 302 305 305 309 312 313 316 317 318 323 326 323 322 322 323 323 326 328 328 327 330 331 331 332 332 332 334 335
307 305 304 305 306 306 306 305 304 303 300 305 306 308 310 312 314 312 315 319 322 321 320 319 319 320 321 324 324 325 325 328 329 328 329 329 330 331
303 303 304 305 304 307 307 305 304 305 300 302 305 307 306 306 308 309 312 313 313 317 319 320 318 318 318 319 319 321 322 323 324 325 326 326 327 328
302 303 303 307 305 306 307 305 304 304 301 299 301 302 302 305 306 307 310 313 310 315 315 315 315 317 317 317 317 317 317 317 319 321 323 324 324 325
301 302 302 305 304 304 304 303 303 303 302 299 298 300 300 301 301 305 306 306 310 313 311 313 312 313 315 315 314 315 313 313 313 315 318 321 322 321
300 301 304 303 303 302 302 301 301 300 300 298 297 297 298 299 299 298 299 302 303 307 310 310 310 310 312 314 315 315 312 311 311 311 312 312 313 314
299 302 303 305 306 304 301 297 296 295 295 296 295 296 296 296 296 297 297 299 300 300 302 304 306 307 308 314 315 315 313 310 308 308 309 308 308 309
297 301 303 304 304 304 304 304 303 298 297 296 296 295 296 296 297 298 298 297 295 300 298 299 304 303 305 308 310 309 310 309 309 308 308 307 308 307
298 300 300 302 303 302 302 302 300 301 301 298 296 296 296 298 298 297 296 297 295 298 299 295 299 301 305 309 308 308 307 306 306 306 306 306 305 304
297 296 297 300 300 300 298 297 297 298 298 299 297 298 298 299 298 298 297 296 297 298 299 294 297 299 303 305 306 306 305 304 304 306 304 304 304 302
295 295 296 298 298 296 296 296 297 297 300 300 299 297 296 296 297 297 294 294 293 294 298 296 297 297 299 303 306 305 304 303 302 303 304 303 302 303
292 294 297 297 295 294 295 296 294 296 297 298 298 297 297 297 299 298 296 293 293 293 298 296 298 299 298 300 304 306 308 308 306 305 302 302 301 303
291 292 296 295 293 293 294 296 295 295 296 297 296 296 297 297 298 299 299 297 295 294 299 299 299 299 301 300 303 306 310 309 310 310 302 300 299 304
289 292 293 292 292 293 294 294 293 295 296 295 295 296 296 296 298 299 300 299 300 298 300 301 299 298 299 298 299 305 305 308 308 306 309 302 299 299
290 292 292 291 293 294 294 294 294 294 293 293 293 295 296 298 299 299 300 300 301 301 303 302 301 300 299 298 299 302 302 306 307 306 307 309 303 302
290 288 291 294 294 294 294 294 293 293 293 292 292 294 296 298 297 298 297 298 297 297 301 303 302 301 299 299 301 300 302 302 305 305 307 308 309 308
289 290 291 291 290 290 291 292 293 293 292 292 292 292 292 294 296 297 297 296 295 295 296 300 302 302 301 301 300 299 300 303 304 305 307 303 302 303
290 288 288 288 288 289 290 291 292 291 291 291 291 290 291 292 294 296 296 295 294 295 296 297 298 299 300 298 299 299 302 303 304 304 305 302 301 300
287 287 287 287 288 289 290 290 289 290 291 289 289 289 290 292 293 295 296 295 295 296 296 298 298 297 294 295 295 295 296 301 302 302 301 299 299 295
286 286 286 287 288 288 288 289 289 289 288 288 288 288 289 290 292 296 296 295 296 297 297 298 298 298 297 298 297 294 292 295 299 300 297 296 295 296
286 286 287 287 287 288 288 289 289 287 286 286 287 287 288 289 290 296 298 292 293 298 297 298 300 293 302 299 295 291 292 294 296 298 297 297 298 299
287 287 287 288 288 288 288 289 286 285 285 285 285 286 286 288 290 293 297 301 300 299 300 301 302 301 301 300 293 291 292 293 294 295 295 294 294 299
288 288 288 288 288 288 287 286 284 284 284 284 284 285 286 288 291 294 305 304 303 302 301 301 300 298 297 294 292 292 291 290 290 290 291 294 295 295

GFSNE_sfc_thetae_165.txt.gz
Theta_e
299 299 299 301 301 301 300 299 299 296 297 302 300 303 302 301 303 304 302 308 313 314 314 314 314 313 315 321 324 327 329 329 327 328 327 330 334 335
300 299 299 300 300 301 300 303 303 300 295 300 299 300 301 301 303 301 301 308 308 308 312 312 312 312 313 315 320 323 326 326 326 326 326 328 329 330
297 299 299 299 299 303 303 303 302 301 296 296 297 300 298 298 299 299 301 301 301 306 309 310 311 310 311 312 314 319 323 323 322 323 324 325 326 328
296 297 298 302 303 302 303 302 299 297 297 295 297 298 297 298 299 296 299 302 300 304 308 308 309 308 309 309 309 313 315 317 319 320 321 321 322 325
295 296 297 302 301 301 302 300 298 299 298 296 296 299 299 299 298 298 296 296 300 306 305 307 307 306 307 308 308 309 310 310 311 313 317 318 319 320
295 296 298 301 301 301 301 300 299 298 295 297 297 297 299 300 300 297 296 295 296 301 302 304 304 303 304 306 308 310 308 307 307 309 310 311 311 314
294 296 297 301 304 303 301 297 297 295 297 296 295 296 296 297 296 298 297 298 298 297 295 295 297 297 297 301 304 309 306 305 306 307 307 307 307 309
292 293 293 298 300 301 300 301 300 297 296 295 295 294 295 296 297 297 296 295 294 300 298 297 295 296 297 298 304 306 304 304 305 303 306 305 306 307
290 290 291 296 299 296 296 298 299 300 300 297 295 295 295 297 297 296 295 295 295 298 297 293 294 294 297 300 302 303 303 303 304 304 303 304 304 303
289 289 289 291 294 294 293 293 295 295 295 297 295 295 296 297 297 297 296 296 296 297 298 292 292 293 296 297 300 302 302 301 302 303 303 302 302 302
289 289 291 291 294 293 293 293 293 294 297 297 297 297 296 296 297 297 294 293 292 294 297 294 294 296 298 297 300 304 303 302 303 304 304 302 302 300
286 288 292 292 293 292 291 292 291 292 293 294 295 295 296 297 299 299 297 293 293 292 297 293 296 297 295 303 303 306 308 304 303 302 302 302 300 302
286 286 288 291 292 291 292 293 291 293 293 293 293 294 294 295 295 297 298 297 295 294 298 298 296 297 297 297 301 305 305 306 307 305 301 299 299 302
285 286 287 291 291 291 292 292 292 293 293 292 291 291 291 292 293 295 297 299 300 298 300 300 297 297 296 295 296 301 303 305 304 304 304 301 299 298
290 291 292 291 291 292 292 293 293 292 291 290 289 290 291 292 293 294 297 299 300 301 301 301 298 298 298 296 296 299 299 303 305 301 301 301 306 305
291 290 291 290 291 291 291 292 291 291 291 290 289 290 290 291 291 293 294 297 297 297 301 301 301 300 297 299 299 297 300 298 302 304 304 304 305 307
289 288 287 287 287 288 288 289 290 290 289 289 288 287 288 289 290 292 293 296 295 295 296 298 300 301 300 299 297 298 297 296 301 303 303 303 302 301
288 286 286 286 286 286 286 286 288 288 288 287 286 286 286 287 288 289 292 295 295 295 295 297 297 298 297 296 297 295 297 297 301 303 303 301 300 299
286 286 286 286 286 285 285 285 285 286 287 286 285 285 286 286 286 287 290 292 295 295 296 297 297 296 294 293 294 295 292 296 297 298 300 299 298 298
287 286 286 287 286 284 283 284 284 284 284 284 284 285 285 285 286 288 289 290 294 296 296 297 297 297 295 296 295 292 292 293 295 297 298 297 297 296
287 286 285 286 285 284 283 283 283 283 283 283 283 284 285 286 286 288 291 289 290 297 296 297 298 292 300 298 294 291 292 294 295 293 293 294 296 298
283 283 283 284 284 283 282 282 282 282 282 282 282 283 285 286 287 289 292 296 297 298 298 300 300 300 299 298 292 291 291 292 294 295 295 294 291 291
283 282 282 282 282 282 281 281 281 281 281 281 282 283 285 286 289 292 297 301 301 300 300 298 298 296 294 293 291 290 289 290 290 290 292 295 295 295

GFSNE_sfc_thetae_168.txt.gz
Theta_e
303 303 303 304 304 305 305 303 301 296 297 302 300 307 305 305 306 308 306 306 307 307 308 312 312 311 311 313 314 320 324 328 330 329 331 330 330 332
301 302 302 303 304 305 305 304 304 300 295 300 301 303 305 304 306 306 304 306 306 306 307 310 310 309 309 311 311 314 320 325 327 326 327 327 329 328
300 300 301 303 304 304 305 303 301 300 296 299 301 304 303 303 304 305 305 304 304 305 307 308 310 308 308 309 309 310 314 318 324 324 324 325 325 327
298 299 300 302 305 305 304 302 301 301 298 297 300 301 302 304 304 303 303 304 304 304 306 306 308 307 306 306 307 308 310 310 315 320 322 323 324 324
297 298 299 301 303 303 303 302 302 302 301 298 298 301 302 303 303 304 303 303 303 305 305 305 305 305 305 305 305 307 307 305 306 311 316 319 320 321
297 298 298 298 300 302 302 301 300 300 299 298 298 298 300 302 301 299 298 301 301 304 304 303 304 304 303 303 304 305 307 305 304 306 309 311 313 315
296 296 297 299 302 303 300 299 299 298 298 297 296 297 297 297 296 298 297 299 300 303 302 302 303 303 302 302 303 304 306 305 304 304 306 306 308 310
293 294 294 298 298 301 299 299 300 298 297 296 295 294 295 296 297 296 296 295 294 302 299 298 302 300 301 302 302 303 304 303 303 304 305 307 305 307
292 291 292 295 296 297 296 297 298 298 299 297 294 294 293 295 295 295 295 295 295 298 298 295 301 299 302 302 302 302 302 301 302 303 303 303 306 304
291 291 291 293 295 295 294 295 296 297 297 297 295 295 296 297 296 296 296 296 297 298 299 293 298 298 302 302 301 300 301 301 301 302 303 303 301 301
290 291 292 293 293 293 293 293 294 295 298 297 297 296 296 295 296 296 295 294 293 294 298 295 297 298 299 303 305 305 303 302 300 302 304 303 302 301
290 291 291 292 292 292 292 292 292 293 294 294 296 296 296 296 297 296 295 293 294 293 297 295 297 298 296 303 303 305 305 304 302 301 301 302 303 312
289 289 291 291 292 291 292 293 292 293 293 294 293 293 294 294 295 295 295 295 293 294 299 298 297 298 298 298 301 303 303 305 309 308 301 300 299 304
290 291 292 291 291 291 292 292 292 293 293 292 291 290 291 291 292 293 295 296 298 298 301 301 298 298 296 296 296 301 303 305 307 306 309 303 300 299
291 291 291 290 290 291 291 292 292 291 291 289 288 288 290 291 292 293 295 297 299 301 302 302 299 299 298 296 296 299 299 303 306 305 307 308 309 308
291 290 291 290 290 290 290 290 290 291 290 288 287 288 289 289 289 291 291 293 295 298 301 302 302 300 298 298 299 298 301 299 304 304 307 309 312 310
290 290 289 288 287 287 287 288 289 289 287 287 286 286 287 288 288 290 290 291 294 295 296 299 301 302 301 301 298 300 301 300 301 302 304 304 306 304
288 286 286 287 286 286 285 285 286 286 285 285 285 285 285 286 286 288 290 291 292 296 296 298 298 298 297 297 297 297 299 299 301 301 303 301 302 301
287 285 285 285 285 285 285 284 283 284 285 284 284 284 285 285 286 287 289 291 292 296 297 298 298 297 294 294 294 295 293 296 297 299 301 300 299 300
285 284 283 284 284 283 283 282 282 283 283 283 283 284 284 285 286 287 289 291 292 295 297 298 298 299 296 296 295 293 292 294 294 296 297 299 300 296
283 283 283 283 282 282 282 282 282 282 282 282 282 283 284 285 286 288 290 290 291 295 297 298 300 292 301 298 294 292 293 294 295 293 294 295 297 300
283 282 282 282 282 282 282 282 281 281 281 281 282 283 284 285 286 288 292 295 300 299 300 301 302 302 301 298 293 292 292 293 295 296 296 294 293 292
282 282 282 282 282 282 282 281 281 281 281 281 281 283 284 285 288 290 293 300 301 301 300 299 298 297 294 293 292 291 290 291 292 292 293 295 296 296

GFSNE_sfc_thetae_171.txt.gz
Theta_e
310 310 309 311 311 311 310 307 302 298 298 307 305 311 311 312 312 312 313 310 309 308 307 308 309 310 310 310 311 312 315 320 325 329 330 334 334 333
308 309 310 310 311 310 309 307 305 301 296 304 306 309 311 311 312 313 312 310 309 308 307 308 308 309 308 308 308 309 311 314 319 325 328 329 330 331
307 307 308 310 309 309 308 307 305 303 299 302 307 310 311 311 311 312 312 312 311 310 307 307 308 307 307 306 306 307 308 311 312 319 325 326 327 328
305 306 307 307 309 309 307 307 306 305 302 300 306 307 309 310 309 308 307 309 310 310 307 307 307 307 307 306 306 306 306 308 308 311 317 323 324 326
305 305 305 305 306 306 306 305 304 304 305 303 303 306 306 306 305 307 306 306 307 308 309 309 307 306 307 306 305 305 305 305 305 306 311 317 321 323
304 303 303 303 304 305 306 304 303 303 304 303 303 303 304 305 303 301 301 303 303 305 307 308 306 307 307 307 304 305 305 305 304 304 305 309 312 315
302 301 302 301 301 302 303 303 303 302 301 300 300 301 301 298 297 298 297 299 301 304 304 304 305 307 310 308 307 306 305 303 304 304 304 304 307 308
299 300 301 300 301 300 300 299 300 299 298 299 298 296 297 297 296 295 295 294 294 303 300 299 304 304 308 309 305 303 302 302 303 303 304 304 304 307
299 299 299 300 301 301 301 300 302 300 299 299 297 297 295 296 295 294 294 294 294 298 299 297 303 303 308 305 305 303 301 301 301 302 303 303 304 304
299 299 299 300 299 297 299 301 303 303 304 301 299 298 297 296 296 296 295 295 297 299 300 295 302 303 307 304 304 304 303 301 300 301 303 302 301 302
299 299 298 299 293 293 297 299 300 302 301 298 298 296 295 295 296 297 294 292 292 295 299 297 299 301 305 303 306 304 302 302 301 301 303 305 302 300
299 299 295 294 292 292 296 297 297 298 299 299 299 297 296 296 297 297 295 291 292 293 299 296 297 300 297 305 303 304 305 303 301 300 301 302 301 316
296 296 296 292 291 291 291 296 293 294 296 296 295 293 293 293 295 295 295 293 292 293 299 299 297 300 299 297 301 304 305 305 307 307 301 299 299 305
295 295 295 291 290 291 293 290 291 293 295 293 292 289 289 290 292 292 293 295 296 296 298 300 298 299 298 297 297 302 304 305 307 307 312 305 299 300
295 293 292 291 291 293 291 291 293 294 291 289 287 287 288 290 291 292 293 294 296 298 302 303 301 300 299 297 298 299 299 304 306 307 308 312 312 311
294 296 293 293 292 292 293 294 291 289 288 286 285 286 288 289 288 290 290 291 292 297 302 303 302 301 299 301 300 300 303 301 305 305 307 310 312 311
293 294 293 292 292 292 293 291 288 287 285 285 285 285 286 287 287 290 290 291 292 295 298 300 302 303 301 300 300 300 302 303 307 304 306 305 310 311
292 290 290 289 289 290 289 285 284 284 284 284 284 284 285 285 286 288 291 291 291 295 298 300 301 300 298 300 298 300 302 301 303 300 301 302 306 308
289 289 288 287 288 287 284 284 282 283 284 284 284 284 285 285 286 287 290 292 292 296 299 301 303 300 296 294 296 295 296 298 297 299 301 302 301 303
289 288 287 285 286 284 284 282 282 283 283 283 283 284 285 285 285 287 290 292 294 295 298 300 300 302 298 296 296 294 292 294 294 294 296 298 299 295
288 288 287 286 284 284 284 282 282 282 282 283 283 283 284 285 286 288 290 290 292 298 298 300 304 292 304 299 295 293 294 294 295 293 294 295 298 300
288 287 287 286 285 284 283 283 283 283 282 282 282 283 284 286 287 288 290 292 297 302 302 303 304 304 300 298 294 293 293 294 296 296 296 295 295 296
287 287 287 287 286 284 283 283 283 284 283 282 282 283 285 286 288 290 292 295 300 301 301 300 300 298 295 294 292 292 292 293 294 294 294 296 296 296

GFSNE_sfc_thetae_174.txt.gz
Theta_e
314 315 315 315 316 316 314 313 308 304 305 310 309 316 315 316 317 317 317 316 314 313 310 309 309 309 309 310 310 310 310 312 316 320 327 331 332 336
313 315 316 316 315 315 314 313 312 307 302 308 309 313 315 313 316 315 314 314 314 314 311 310 308 308 308 308 308 308 309 309 312 313 320 328 330 333
312 311 312 314 313 314 313 313 310 309 304 305 309 313 316 315 313 314 313 313 314 313 312 309 309 309 307 307 307 307 307 307 308 311 312 319 327 328
310 310 311 311 312 313 311 310 309 309 304 302 307 309 313 314 313 311 310 311 311 312 310 310 310 309 308 307 307 307 306 305 306 309 310 313 323 327
309 309 309 310 310 310 308 309 307 305 306 305 305 309 310 311 309 310 309 310 309 310 310 310 311 308 309 308 307 307 305 305 304 306 307 308 313 321
309 309 308 308 308 307 307 308 305 303 305 303 305 306 308 311 308 304 304 305 303 307 308 309 308 309 309 310 310 308 306 304 304 304 304 304 305 311
309 308 308 305 302 303 303 306 305 302 302 302 302 304 305 304 302 301 299 299 301 304 304 304 307 308 310 311 311 309 305 304 303 303 303 303 302 305
306 307 308 305 305 303 302 302 301 302 301 299 301 301 302 300 300 296 296 295 293 302 299 299 306 305 308 309 306 305 305 304 303 303 302 303 303 303
306 306 305 305 304 304 302 302 304 302 301 301 298 300 299 300 297 294 296 296 295 298 299 297 304 303 308 308 305 304 303 303 302 301 302 303 302 301
305 304 302 301 297 297 299 302 304 305 307 303 302 301 300 299 296 296 297 298 298 300 302 295 302 302 306 308 304 304 302 301 302 302 302 303 302 299
302 302 301 300 293 293 297 300 302 303 303 301 299 298 296 295 296 296 295 293 292 295 299 299 300 301 304 306 308 303 302 301 301 301 303 304 304 300
303 300 294 294 292 292 297 297 297 300 300 302 303 302 300 295 295 297 294 290 290 291 299 297 298 299 298 307 305 305 305 303 303 300 301 302 303 316
301 301 299 292 292 291 291 296 295 295 299 300 299 297 293 293 293 294 294 292 289 290 296 296 297 297 298 301 303 305 304 304 306 307 300 300 300 303
299 300 299 291 291 291 294 290 292 294 296 295 291 289 290 290 291 292 293 294 295 293 296 297 296 298 298 296 298 304 304 305 306 307 310 304 300 300
298 296 293 292 292 296 293 292 292 291 289 287 286 287 288 290 291 292 294 294 295 297 299 301 301 301 300 297 298 299 300 304 307 307 309 313 312 312
297 300 296 295 294 296 298 294 290 288 287 285 285 287 288 289 289 290 291 292 292 298 303 303 303 302 301 301 301 301 303 302 308 307 310 311 314 314
293 298 296 296 297 296 295 293 289 288 287 286 285 285 285 287 287 289 290 291 292 295 299 304 308 304 305 304 301 303 304 305 307 308 305 306 310 312
295 295 294 294 293 292 291 287 286 286 285 284 285 285 285 285 286 288 291 291 292 295 298 304 304 302 301 302 299 302 304 303 303 301 302 302 306 309
294 293 292 292 291 292 288 285 284 286 285 285 284 284 284 285 285 286 290 292 293 296 298 304 304 302 298 294 297 295 295 296 297 298 300 302 302 306
293 292 291 291 291 291 290 288 288 290 285 284 284 284 284 285 285 286 289 291 293 297 298 302 302 303 299 297 296 294 292 295 294 294 296 298 300 295
292 292 292 292 291 291 291 290 289 289 285 284 284 283 284 285 286 288 289 289 290 298 300 302 306 291 305 300 296 295 296 295 295 294 294 294 298 301
292 292 292 292 291 291 290 289 289 289 285 283 283 283 284 286 287 288 290 292 295 301 301 302 302 302 299 297 294 294 294 295 297 297 296 295 294 296
292 292 291 292 291 291 290 289 288 288 285 284 283 283 284 285 287 289 292 295 299 299 301 301 300 298 296 294 292 293 294 294 295 295 297 296 296 297